Time,TemperatureF,DewpointF,PressureIn,WindDirection,WindDirectionDegrees,WindSpeedMPH,WindSpeedGustMPH,Humidity,HourlyPrecipIn,Conditions,Clouds,dailyrainin,SolarRadiationWatts/m^2,SoftwareType,DateUTC
2013-07-01 00:01:00,58.0,57.0,-100.00,SSE,152,0.0,1.0,97,0.00,,,0.00,0.000000,,2013-07-01 05:01:00,
2013-07-01 00:33:00,57.0,57.0,-100.00,SSE,152,0.0,0.0,100,0.00,,,0.00,0.000000,,2013-07-01 05:33:00,
2013-07-01 00:42:00,57.0,57.0,-100.00,SSE,152,0.0,0.0,100,0.00,,,0.00,0.000000,,2013-07-01 05:42:00,
2013-07-01 00:52:00,57.0,57.0,-100.00,SSE,152,0.0,0.0,100,0.00,,,0.00,0.000000,,2013-07-01 05:52:00,
2013-07-01 01:02:00,57.0,57.0,-100.00,SSE,152,0.0,0.0,100,0.00,,,0.00,0.000000,,2013-07-01 06:02:00,
2013-07-01 01:33:00,55.0,55.0,-100.00,SSE,152,0.0,2.0,100,0.00,,,0.00,0.000000,,2013-07-01 06:33:00,
2013-07-01 01:43:00,55.0,55.0,-100.00,SSE,152,0.0,2.0,100,0.00,,,0.00,0.000000,,2013-07-01 06:43:00,
2013-07-01 01:53:00,55.0,55.0,-100.00,SSE,152,0.0,2.0,100,0.00,,,0.00,0.000000,,2013-07-01 06:53:00,
2013-07-01 02:01:00,55.0,55.0,-100.00,SSE,152,0.0,2.0,100,0.00,,,0.00,0.000000,,2013-07-01 07:01:00,
2013-07-01 02:33:00,54.0,54.0,-100.00,SSE,152,0.0,0.0,100,0.00,,,0.00,0.000000,,2013-07-01 07:33:00,
2013-07-01 02:43:00,54.0,54.0,-100.00,SSE,152,0.0,0.0,100,0.00,,,0.00,0.000000,,2013-07-01 07:43:00,
2013-07-01 02:53:00,54.0,54.0,-100.00,SSE,152,0.0,0.0,100,0.00,,,0.00,0.000000,,2013-07-01 07:53:00,
2013-07-01 03:01:00,54.0,54.0,-100.00,SSE,152,0.0,0.0,100,0.00,,,0.00,0.000000,,2013-07-01 08:01:00,
2013-07-01 03:33:00,53.0,53.0,-100.00,SSE,152,0.0,1.0,100,0.00,,,0.00,0.000000,,2013-07-01 08:33:00,
2013-07-01 03:43:00,53.0,53.0,-100.00,SSE,152,0.0,1.0,100,0.00,,,0.00,0.000000,,2013-07-01 08:43:00,
2013-07-01 03:52:00,53.0,53.0,-100.00,SSE,152,0.0,1.0,100,0.00,,,0.00,0.000000,,2013-07-01 08:52:00,
2013-07-01 04:02:00,53.0,53.0,-100.00,SSE,152,0.0,1.0,100,0.00,,,0.00,0.000000,,2013-07-01 09:02:00,
2013-07-01 04:34:00,52.0,52.0,-100.00,NNW,337,0.0,1.0,100,0.00,,,0.00,0.000000,,2013-07-01 09:34:00,
2013-07-01 04:43:00,52.0,52.0,-100.00,NNW,337,0.0,1.0,100,0.00,,,0.00,0.000000,,2013-07-01 09:43:00,
2013-07-01 04:53:00,52.0,52.0,-100.00,NNW,337,0.0,1.0,100,0.00,,,0.00,0.000000,,2013-07-01 09:53:00,
2013-07-01 05:03:00,52.0,52.0,-100.00,NNW,337,0.0,1.0,100,0.00,,,0.00,0.000000,,2013-07-01 10:03:00,
2013-07-01 05:33:00,51.0,51.0,-100.00,SSE,158,0.0,2.0,100,0.00,,,0.00,0.000000,,2013-07-01 10:33:00,
2013-07-01 05:43:00,51.0,51.0,-100.00,SSE,158,0.0,2.0,100,0.00,,,0.00,0.000000,,2013-07-01 10:43:00,
2013-07-01 05:52:00,51.0,51.0,-100.00,SSE,158,0.0,2.0,100,0.00,,,0.00,0.000000,,2013-07-01 10:52:00,
2013-07-01 06:02:00,51.0,51.0,-100.00,SSE,158,0.0,2.0,100,0.00,,,0.00,0.000000,,2013-07-01 11:02:00,
2013-07-01 06:33:00,51.0,51.0,-100.00,SSE,167,0.0,1.0,100,0.00,,,0.00,10.000000,,2013-07-01 11:33:00,
2013-07-01 06:43:00,51.0,51.0,-100.00,SSE,167,0.0,1.0,100,0.00,,,0.00,10.000000,,2013-07-01 11:43:00,
2013-07-01 06:52:00,51.0,51.0,-100.00,SSE,167,0.0,1.0,100,0.00,,,0.00,10.000000,,2013-07-01 11:52:00,
2013-07-01 07:01:00,51.0,51.0,-100.00,SSE,167,0.0,1.0,100,0.00,,,0.00,10.000000,,2013-07-01 12:01:00,
2013-07-01 07:33:00,58.0,57.0,-100.00,SSE,162,0.0,3.0,98,0.00,,,0.00,87.000000,,2013-07-01 12:33:00,
2013-07-01 07:43:00,58.0,57.0,-100.00,SSE,162,0.0,3.0,98,0.00,,,0.00,87.000000,,2013-07-01 12:43:00,
2013-07-01 07:53:00,58.0,57.0,-100.00,SSE,162,0.0,3.0,98,0.00,,,0.00,87.000000,,2013-07-01 12:53:00,
2013-07-01 08:02:00,58.0,57.0,-100.00,SSE,162,0.0,3.0,98,0.00,,,0.00,87.000000,,2013-07-01 13:02:00,
2013-07-01 08:33:00,65.0,56.0,-100.00,SSW,201,0.0,2.0,73,0.00,,,0.00,220.000000,,2013-07-01 13:33:00,
2013-07-01 08:43:00,65.0,56.0,-100.00,SSW,201,0.0,2.0,73,0.00,,,0.00,220.000000,,2013-07-01 13:43:00,
2013-07-01 08:53:00,65.0,56.0,-100.00,SSW,201,0.0,2.0,73,0.00,,,0.00,220.000000,,2013-07-01 13:53:00,
2013-07-01 09:01:00,65.0,56.0,-100.00,SSW,201,0.0,2.0,73,0.00,,,0.00,220.000000,,2013-07-01 14:01:00,
2013-07-01 09:34:00,69.0,55.0,-100.00,WNW,299,1.0,4.0,61,0.00,,,0.00,381.000000,,2013-07-01 14:34:00,
2013-07-01 09:43:00,69.0,55.0,-100.00,WNW,299,1.0,4.0,61,0.00,,,0.00,381.000000,,2013-07-01 14:43:00,
2013-07-01 09:53:00,69.0,55.0,-100.00,WNW,299,1.0,4.0,61,0.00,,,0.00,381.000000,,2013-07-01 14:53:00,
2013-07-01 10:02:00,69.0,55.0,-100.00,WNW,299,1.0,4.0,61,0.00,,,0.00,381.000000,,2013-07-01 15:02:00,
2013-07-01 10:34:00,75.0,56.0,-100.00,NW,310,1.0,3.0,52,0.00,,,0.00,544.000000,,2013-07-01 15:34:00,
2013-07-01 10:43:00,75.0,56.0,-100.00,NW,310,1.0,3.0,52,0.00,,,0.00,544.000000,,2013-07-01 15:43:00,
2013-07-01 10:53:00,75.0,56.0,-100.00,NW,310,1.0,3.0,52,0.00,,,0.00,544.000000,,2013-07-01 15:53:00,
2013-07-01 11:01:00,75.0,56.0,-100.00,NW,310,1.0,3.0,52,0.00,,,0.00,544.000000,,2013-07-01 16:01:00,
2013-07-01 11:33:00,77.0,55.0,-100.00,NW,319,3.0,6.0,46,0.00,,,0.00,686.000000,,2013-07-01 16:33:00,
2013-07-01 11:44:00,77.0,55.0,-100.00,NW,319,3.0,6.0,46,0.00,,,0.00,686.000000,,2013-07-01 16:44:00,
2013-07-01 11:53:00,77.0,55.0,-100.00,NW,319,3.0,6.0,46,0.00,,,0.00,686.000000,,2013-07-01 16:53:00,
2013-07-01 12:02:00,77.0,55.0,-100.00,NW,319,3.0,6.0,46,0.00,,,0.00,686.000000,,2013-07-01 17:02:00,
2013-07-01 12:34:00,79.0,53.0,-100.00,WSW,244,3.0,8.0,40,0.00,,,0.00,775.000000,,2013-07-01 17:34:00,
2013-07-01 12:43:00,79.0,53.0,-100.00,WSW,244,3.0,8.0,40,0.00,,,0.00,775.000000,,2013-07-01 17:43:00,
2013-07-01 12:53:00,79.0,53.0,-100.00,WSW,244,3.0,8.0,40,0.00,,,0.00,775.000000,,2013-07-01 17:53:00,
2013-07-01 13:02:00,79.0,53.0,-100.00,WSW,244,3.0,8.0,40,0.00,,,0.00,775.000000,,2013-07-01 18:02:00,
2013-07-01 13:33:00,80.0,52.0,-100.00,South,179,4.0,8.0,38,0.00,,,0.00,830.000000,,2013-07-01 18:33:00,
2013-07-01 13:44:00,80.0,52.0,-100.00,South,179,4.0,8.0,38,0.00,,,0.00,830.000000,,2013-07-01 18:44:00,
2013-07-01 13:53:00,80.0,52.0,-100.00,South,179,4.0,8.0,38,0.00,,,0.00,830.000000,,2013-07-01 18:53:00,
2013-07-01 14:02:00,80.0,52.0,-100.00,South,179,4.0,8.0,38,0.00,,,0.00,830.000000,,2013-07-01 19:02:00,
2013-07-01 14:34:00,83.0,54.0,-100.00,South,185,4.0,8.0,37,0.00,,,0.00,886.000000,,2013-07-01 19:34:00,
2013-07-01 14:44:00,83.0,54.0,-100.00,South,185,4.0,8.0,37,0.00,,,0.00,886.000000,,2013-07-01 19:44:00,
2013-07-01 14:53:00,83.0,54.0,-100.00,South,185,4.0,8.0,37,0.00,,,0.00,886.000000,,2013-07-01 19:53:00,
2013-07-01 15:02:00,83.0,54.0,-100.00,South,185,4.0,8.0,37,0.00,,,0.00,886.000000,,2013-07-01 20:02:00,
2013-07-01 15:34:00,82.0,53.0,-100.00,SW,216,2.0,12.0,37,0.00,,,0.00,785.000000,,2013-07-01 20:34:00,
2013-07-01 15:43:00,82.0,53.0,-100.00,SW,216,2.0,12.0,37,0.00,,,0.00,785.000000,,2013-07-01 20:43:00,
2013-07-01 15:52:00,82.0,53.0,-100.00,SW,216,2.0,12.0,37,0.00,,,0.00,785.000000,,2013-07-01 20:52:00,
2013-07-01 16:02:00,82.0,53.0,-100.00,SW,216,2.0,12.0,37,0.00,,,0.00,785.000000,,2013-07-01 21:02:00,
2013-07-01 16:34:00,83.0,55.0,-100.00,SSE,165,6.0,10.0,38,0.00,,,0.00,747.000000,,2013-07-01 21:34:00,
2013-07-01 16:44:00,83.0,55.0,-100.00,SSE,165,6.0,10.0,38,0.00,,,0.00,747.000000,,2013-07-01 21:44:00,
2013-07-01 16:53:00,83.0,55.0,-100.00,SSE,165,6.0,10.0,38,0.00,,,0.00,747.000000,,2013-07-01 21:53:00,
2013-07-01 17:01:00,83.0,55.0,-100.00,SSE,165,6.0,10.0,38,0.00,,,0.00,747.000000,,2013-07-01 22:01:00,
2013-07-01 17:33:00,82.0,55.0,-100.00,South,171,5.0,9.0,39,0.00,,,0.00,598.000000,,2013-07-01 22:33:00,
2013-07-01 17:43:00,82.0,55.0,-100.00,South,171,5.0,9.0,39,0.00,,,0.00,598.000000,,2013-07-01 22:43:00,
2013-07-01 17:53:00,82.0,55.0,-100.00,South,171,5.0,9.0,39,0.00,,,0.00,598.000000,,2013-07-01 22:53:00,
2013-07-01 18:01:00,82.0,55.0,-100.00,South,171,5.0,9.0,39,0.00,,,0.00,598.000000,,2013-07-01 23:01:00,
2013-07-01 18:33:00,75.0,53.0,-100.00,SE,132,3.0,10.0,47,0.00,,,0.00,118.000000,,2013-07-01 23:33:00,
2013-07-01 19:34:00,81.0,57.0,-100.00,SE,124,1.0,3.0,44,0.00,,,0.00,293.000000,,2013-07-02 00:34:00,
2013-07-01 19:43:00,81.0,57.0,-100.00,SE,124,1.0,3.0,44,0.00,,,0.00,293.000000,,2013-07-02 00:43:00,
2013-07-01 19:53:00,81.0,57.0,-100.00,SE,124,1.0,3.0,44,0.00,,,0.00,293.000000,,2013-07-02 00:53:00,
2013-07-01 20:01:00,81.0,57.0,-100.00,SE,124,1.0,3.0,44,0.00,,,0.00,293.000000,,2013-07-02 01:01:00,
2013-07-01 20:33:00,75.0,59.0,-100.00,SE,136,3.0,6.0,57,0.00,,,0.00,105.000000,,2013-07-02 01:33:00,
2013-07-01 20:43:00,75.0,59.0,-100.00,SE,136,3.0,6.0,57,0.00,,,0.00,105.000000,,2013-07-02 01:43:00,
2013-07-01 20:53:00,75.0,59.0,-100.00,SE,136,3.0,6.0,57,0.00,,,0.00,105.000000,,2013-07-02 01:53:00,
2013-07-01 21:02:00,75.0,59.0,-100.00,SE,136,3.0,6.0,57,0.00,,,0.00,105.000000,,2013-07-02 02:02:00,
2013-07-01 21:34:00,70.0,58.0,-100.00,South,173,2.0,5.0,66,0.00,,,0.00,14.000000,,2013-07-02 02:34:00,
2013-07-01 21:43:00,70.0,58.0,-100.00,South,173,2.0,5.0,66,0.00,,,0.00,14.000000,,2013-07-02 02:43:00,
2013-07-01 21:53:00,70.0,58.0,-100.00,South,173,2.0,5.0,66,0.00,,,0.00,14.000000,,2013-07-02 02:53:00,
2013-07-01 22:01:00,70.0,58.0,-100.00,South,173,2.0,5.0,66,0.00,,,0.00,14.000000,,2013-07-02 03:01:00,
2013-07-01 22:33:00,67.0,55.0,-100.00,SSE,153,2.0,4.0,66,0.00,,,0.00,0.000000,,2013-07-02 03:33:00,
2013-07-01 22:43:00,67.0,55.0,-100.00,SSE,153,2.0,4.0,66,0.00,,,0.00,0.000000,,2013-07-02 03:43:00,
2013-07-01 22:53:00,67.0,55.0,-100.00,SSE,153,2.0,4.0,66,0.00,,,0.00,0.000000,,2013-07-02 03:53:00,
2013-07-01 23:02:00,67.0,55.0,-100.00,SSE,153,2.0,4.0,66,0.00,,,0.00,0.000000,,2013-07-02 04:02:00,
2013-07-01 23:32:00,65.0,53.0,-100.00,SE,143,3.0,8.0,64,0.00,,,0.00,0.000000,,2013-07-02 04:32:00,
2013-07-01 23:42:00,65.0,53.0,-100.00,SE,143,3.0,8.0,64,0.00,,,0.00,0.000000,,2013-07-02 04:42:00,
2013-07-01 23:53:00,65.0,53.0,-100.00,SE,143,3.0,8.0,64,0.00,,,0.00,0.000000,,2013-07-02 04:53:00,